Powrót do katalogu

HAWK-2C

AktywnyNaukaSSO
NORAD 47502·PAYLOAD·🇺🇸 United States

Wystrzelony Jan 24, 2021 z Cape Canaveral Space Force Station

Loading…

Następne Przeloty (najbliższe 24 godziny)

TLE

ŚwieżeSource: Space-Track

Epoka: Sep 14, 2026, 13:58 UTC

1 47502U 21006CT  26257.58217437  .00005046  00000-0  14792-3 0  9997
2 47502  97.2195 300.1299 0005267 229.4560 130.6226 15.35625431313210

Śledź HAWK-2C w czasie rzeczywistym z AllMySat

Download on the App Store